Wind_Speed
41 42 37 34 35 34 34 37 38 37 36 35 36 35 30 23 22 21 21 26 34 42 47 47 41 38 37 35 30 30 29 28 27 26 28 31 35 38 41 44 46 47
43 46 42 39 38 37 35 37 40 40 37 36 36 38 37 29 22 21 21 21 25 33 43 47 44 40 37 33 29 27 25 23 22 23 27 30 33 36 37 40 44 46
45 49 48 44 42 41 39 38 41 42 41 39 37 38 40 35 27 24 22 21 23 27 33 39 39 36 32 29 28 26 23 21 21 24 27 29 32 35 36 37 39 41
45 50 51 48 45 43 42 41 40 42 43 43 40 39 40 38 32 27 24 22 23 23 24 27 28 28 27 28 28 27 25 23 25 27 29 30 31 33 34 35 35 36
45 50 54 51 49 46 44 43 40 39 41 43 42 40 40 39 34 31 29 24 22 22 21 23 24 25 26 27 28 28 27 27 29 30 31 31 33 34 33 33 33 34
45 51 56 54 53 49 45 44 42 39 38 40 41 40 40 39 35 34 34 30 26 24 23 26 28 29 28 29 31 31 29 30 31 32 33 35 37 36 33 31 31 32
45 50 57 57 55 52 47 45 43 41 39 37 39 39 38 38 36 37 39 36 33 33 32 35 38 38 38 37 38 37 35 33 34 35 37 38 38 35 32 29 29 31
44 49 57 58 55 53 50 45 43 43 41 38 38 38 36 35 35 38 41 39 38 38 38 40 43 45 45 44 43 42 38 36 37 38 38 39 37 32 29 27 28 30
43 48 56 58 56 54 50 46 45 44 43 40 38 38 36 34 35 39 41 40 39 38 38 40 43 46 47 45 44 42 38 36 36 37 38 37 33 29 26 25 25 27
41 47 55 58 56 53 49 47 47 45 43 42 40 39 36 35 36 39 40 40 39 38 38 39 41 43 43 42 39 36 34 34 35 37 36 33 28 25 24 22 22 23
39 45 54 58 56 53 49 47 48 46 44 43 42 41 38 35 35 37 40 40 40 40 39 38 38 38 37 36 35 34 35 36 37 37 33 28 25 23 22 21 21 22
37 43 51 57 56 51 48 47 47 47 45 44 44 43 42 39 36 35 37 39 40 41 40 39 40 40 40 40 39 39 39 39 37 34 30 26 23 22 21 21 22 23
34 40 49 56 55 51 47 45 45 44 43 43 45 47 45 43 40 37 36 38 40 41 41 42 43 43 44 43 42 40 40 38 35 32 29 25 20 19 20 21 23 24
31 38 46 53 54 52 48 44 43 42 41 41 45 48 48 47 45 43 40 39 40 40 40 41 42 43 43 43 41 39 38 36 33 31 29 25 21 19 20 21 23 24
29 35 42 48 52 53 50 46 44 43 42 42 43 46 48 48 47 47 45 42 41 40 39 40 41 41 42 41 39 37 35 34 32 31 30 30 29 27 24 22 23 23
26 32 39 45 50 54 53 49 47 45 43 44 43 42 45 47 47 48 49 47 44 41 39 39 39 39 38 37 36 34 34 35 34 33 31 31 31 30 26 23 22 22
25 28 35 41 47 53 55 54 52 49 47 47 45 43 45 47 48 50 51 52 50 46 42 39 38 37 37 37 36 35 36 36 36 35 33 32 31 29 27 25 24 23
26 26 31 38 44 49 54 57 57 54 51 50 48 46 47 47 48 50 51 52 52 50 46 42 39 38 39 39 39 38 39 38 38 38 37 35 34 32 30 30 29 27
28 28 29 34 41 46 51 56 59 58 55 53 53 51 50 49 49 49 49 49 50 50 49 47 44 42 43 43 42 42 42 41 41 41 40 37 36 35 34 34 34 33
30 31 31 33 37 44 49 53 57 58 56 55 55 54 53 52 51 50 48 48 49 50 50 49 48 47 46 46 44 43 43 43 43 43 41 38 37 36 35 35 36 37
34 34 34 35 37 42 47 50 54 56 56 55 55 55 54 54 52 50 48 47 48 48 49 49 48 47 47 47 46 45 45 45 45 44 43 41 40 38 37 36 36 36
38 37 37 38 39 42 46 49 52 54 55 55 54 53 53 51 50 48 47 47 48 49 49 50 49 48 49 49 49 48 47 46 46 45 44 43 42 41 39 38 38 38
42 42 41 41 43 45 47 49 51 52 54 55 55 54 52 51 50 49 48 49 50 50 50 50 50 50 51 51 50 49 48 47 46 45 44 43 43 42 42 42 41 41
46 47 46 44 45 48 49 51 52 52 53 54 55 55 55 55 54 53 51 51 50 50 50 50 50 51 51 51 50 49 48 47 46 45 44 44 43 43 44 44 44 44
49 50 51 49 48 49 52 53 54 54 54 54 55 56 58 59 58 57 55 53 51 51 50 50 49 50 50 50 49 48 47 47 47 47 47 46 46 46 47 47 47 47
50 53 55 55 53 51 52 54 56 56 57 56 56 57 59 60 60 60 58 56 54 52 52 52 53 52 51 50 49 48 47 47 47 47 47 48 48 49 49 50 51 51
Wind_Direction
243 237 230 226 225 222 221 223 225 226 229 232 236 241 243 241 240 243 249 250 246 242 239 239 244 248 247 246 251 256 259 264 268 273 278 278 277 273 270 267 262 260
241 233 228 222 219 217 218 222 224 225 227 230 234 239 241 243 240 239 246 252 251 247 241 241 245 244 242 246 250 250 254 261 268 276 281 282 281 277 271 265 260 257
241 230 226 222 216 215 219 223 225 226 226 228 235 239 240 243 243 239 246 254 251 247 242 240 240 238 238 241 241 242 249 260 272 281 285 287 286 282 273 265 261 259
242 228 223 221 218 217 220 224 228 231 229 229 236 241 239 241 242 238 246 252 239 231 232 233 233 234 237 237 241 248 257 267 278 284 288 293 293 287 276 266 263 260
242 227 221 219 219 218 221 224 229 232 232 230 235 240 239 238 238 236 244 245 226 216 222 230 236 242 245 250 257 264 269 275 282 285 288 293 296 292 281 268 262 258
242 226 220 219 219 218 221 224 227 230 233 232 234 239 240 237 233 236 241 239 230 227 232 240 247 251 254 261 268 272 276 278 282 285 288 292 295 292 282 270 262 256
239 227 220 219 218 218 221 226 226 228 232 232 233 236 238 235 232 235 239 240 241 243 246 252 256 258 259 263 268 273 275 276 279 284 288 292 293 287 278 270 261 254
237 227 220 219 218 217 221 226 225 227 231 231 231 233 235 233 231 232 237 242 246 247 250 254 258 260 261 263 266 270 271 272 276 281 287 291 289 279 272 268 260 253
236 227 220 219 218 217 220 224 223 225 229 229 228 230 232 233 231 230 233 240 245 247 248 253 257 260 260 262 264 265 266 269 273 279 287 291 284 271 267 267 262 255
236 226 219 218 217 218 221 223 221 224 228 228 226 226 230 234 234 232 232 236 241 243 245 249 254 257 258 259 260 260 263 268 274 282 288 289 278 267 265 265 261 257
237 226 219 216 216 218 222 222 221 224 228 228 227 225 228 232 234 234 232 233 237 239 242 246 250 254 258 259 261 264 267 272 278 282 285 284 274 266 265 264 260 255
238 228 219 215 215 218 222 221 222 227 230 231 230 228 228 230 232 235 235 234 234 236 238 245 251 257 261 263 265 267 270 274 276 277 280 280 271 265 266 264 259 254
238 229 220 215 215 217 218 219 224 231 233 234 234 232 230 230 232 235 237 236 235 236 240 246 252 257 260 262 264 267 270 272 271 270 273 275 270 269 270 266 259 255
237 229 221 216 215 215 215 219 226 233 236 236 236 236 235 234 236 238 239 237 236 237 241 246 251 256 259 262 264 267 268 268 265 262 264 267 271 278 279 271 263 259
236 229 222 218 215 213 213 218 224 229 234 237 238 238 237 238 240 241 241 239 237 239 242 245 249 254 258 260 263 264 263 261 257 255 258 263 270 278 278 271 265 262
238 229 223 219 215 213 213 217 220 223 228 233 237 239 239 238 239 240 241 242 244 246 246 244 247 253 256 257 256 256 256 257 253 251 255 260 266 273 272 265 264 263
242 231 223 219 216 215 216 217 218 220 225 229 234 237 239 238 238 240 243 245 248 251 250 247 247 250 252 252 250 248 251 254 253 252 256 259 262 267 266 262 262 261
245 235 226 222 219 217 218 220 221 222 225 229 231 234 237 238 239 242 244 247 249 251 252 251 249 246 247 249 249 246 248 251 252 253 257 261 263 264 263 260 259 257
245 240 231 225 223 221 221 222 223 224 225 228 230 232 235 237 239 242 244 246 248 251 253 254 252 247 245 247 249 248 248 250 252 254 257 260 262 263 262 259 258 258
238 241 237 230 226 226 225 225 226 226 226 227 230 233 235 238 240 242 244 245 248 250 252 253 252 249 247 247 248 248 248 249 251 253 256 257 257 259 259 258 257 258
228 234 238 235 230 229 229 229 229 229 227 227 230 233 236 239 242 243 244 245 245 247 248 248 248 246 245 245 246 248 248 249 250 252 254 256 256 255 255 254 254 255
224 226 232 235 233 230 230 231 232 231 230 229 229 231 235 238 240 242 242 243 243 243 243 243 243 242 242 243 246 248 249 250 250 251 252 254 255 254 253 252 252 252
225 222 225 229 231 231 230 231 232 232 232 231 230 230 231 233 235 238 239 241 242 242 241 240 240 240 241 243 245 247 248 249 250 251 251 252 253 254 253 251 250 251
228 223 222 224 227 229 230 231 232 233 233 232 231 231 230 229 231 234 236 238 239 239 239 239 239 239 241 244 246 247 247 248 249 249 249 250 251 251 251 251 251 251
231 226 222 222 223 225 227 230 231 232 233 232 231 231 230 230 230 232 233 234 235 237 238 238 239 239 241 243 245 247 248 248 249 249 250 251 252 253 253 252 252 253
234 228 225 223 223 223 224 227 229 231 232 233 232 231 231 230 230 231 231 231 233 235 237 237 238 239 241 242 243 246 248 249 251 253 255 256 256 256 256 256 255 255
Height
10637 10638 10640 10641 10641 10643 10646 10648 10650 10652 10653 10655 10655 10655 10657 10659 10660 10661 10662 10662 10663 10664 10666 10668 10670 10672 10671 10672 10673 10672 10672 10672 10671 10671 10671 10670 10670 10669 10669 10669 10667 10667
10629 10631 10633 10634 10636 10639 10641 10642 10645 10646 10648 10650 10650 10650 10653 10656 10657 10657 10658 10658 10659 10659 10661 10663 10665 10666 10666 10667 10668 10668 10667 10667 10667 10667 10667 10666 10665 10664 10664 10662 10661 10661
10620 10622 10625 10628 10631 10633 10635 10637 10639 10640 10643 10645 10646 10645 10647 10651 10653 10653 10654 10655 10656 10656 10657 10658 10660 10661 10662 10662 10662 10662 10662 10663 10663 10663 10663 10663 10661 10660 10658 10656 10655 10656
10611 10614 10618 10621 10624 10627 10629 10632 10633 10635 10637 10640 10642 10641 10641 10646 10649 10650 10651 10652 10652 10653 10653 10654 10655 10656 10656 10656 10656 10657 10659 10659 10660 10660 10660 10659 10658 10656 10653 10652 10651 10652
10602 10606 10610 10614 10618 10620 10623 10626 10627 10629 10632 10635 10636 10636 10637 10641 10645 10646 10647 10649 10649 10649 10649 10650 10651 10652 10651 10651 10652 10654 10655 10656 10656 10657 10657 10656 10654 10652 10650 10648 10648 10648
10593 10598 10603 10607 10610 10613 10617 10620 10622 10624 10626 10629 10631 10632 10633 10636 10639 10641 10643 10645 10646 10645 10645 10646 10647 10648 10648 10648 10649 10650 10651 10652 10652 10652 10652 10652 10651 10649 10646 10645 10644 10644
10586 10590 10595 10599 10603 10607 10611 10614 10616 10618 10621 10624 10625 10626 10629 10631 10634 10637 10638 10640 10642 10642 10641 10642 10643 10644 10644 10645 10645 10646 10647 10648 10648 10648 10648 10647 10647 10645 10643 10641 10641 10641
10579 10583 10588 10592 10597 10601 10605 10608 10611 10613 10616 10618 10620 10622 10624 10627 10629 10632 10633 10635 10637 10637 10638 10638 10639 10640 10641 10642 10643 10643 10644 10644 10644 10644 10644 10643 10642 10641 10639 10638 10638 10638
10574 10577 10581 10586 10591 10596 10600 10603 10605 10608 10610 10613 10615 10617 10620 10622 10625 10627 10628 10630 10632 10633 10634 10634 10635 10636 10637 10638 10640 10639 10639 10639 10639 10640 10640 10639 10638 10637 10636 10635 10635 10635
10568 10572 10576 10581 10586 10591 10594 10597 10600 10603 10605 10607 10610 10613 10616 10618 10620 10622 10623 10625 10626 10628 10629 10630 10631 10631 10632 10633 10634 10634 10635 10635 10635 10636 10636 10635 10634 10633 10633 10633 10632 10632
10564 10567 10571 10576 10582 10586 10589 10593 10596 10598 10600 10602 10605 10608 10611 10613 10615 10616 10618 10619 10621 10623 10624 10625 10626 10626 10627 10627 10628 10629 10630 10631 10632 10632 10632 10631 10630 10630 10630 10629 10629 10628
10559 10562 10567 10572 10577 10581 10585 10589 10592 10593 10595 10598 10600 10603 10605 10607 10609 10611 10612 10614 10615 10617 10619 10620 10621 10621 10621 10622 10623 10624 10625 10626 10627 10628 10628 10627 10627 10627 10626 10626 10625 10624
10555 10558 10562 10567 10573 10577 10580 10584 10587 10589 10592 10594 10594 10596 10599 10602 10603 10605 10607 10609 10610 10612 10614 10615 10616 10616 10617 10618 10619 10620 10621 10621 10623 10624 10624 10624 10624 10623 10623 10622 10621 10620
10551 10554 10557 10563 10568 10572 10576 10580 10583 10585 10588 10588 10588 10590 10594 10596 10598 10600 10602 10604 10605 10607 10609 10610 10611 10612 10612 10613 10614 10615 10616 10616 10617 10618 10619 10620 10619 10619 10619 10619 10617 10616
10546 10549 10553 10558 10562 10567 10572 10575 10578 10579 10581 10582 10582 10585 10588 10591 10592 10594 10596 10598 10599 10601 10604 10605 10606 10607 10607 10608 10608 10609 10610 10611 10612 10613 10614 10615 10615 10615 10615 10615 10614 10613
10542 10545 10549 10552 10557 10561 10565 10568 10570 10571 10573 10575 10576 10579 10581 10584 10586 10588 10590 10592 10594 10596 10598 10599 10601 10602 10602 10602 10603 10604 10605 10606 10606 10607 10608 10609 10610 10610 10611 10611 10611 10610
10538 10541 10544 10547 10551 10554 10558 10560 10561 10563 10565 10567 10570 10572 10574 10577 10580 10582 10584 10586 10588 10590 10592 10593 10595 10596 10596 10597 10597 10598 10599 10600 10601 10602 10602 10603 10604 10605 10606 10607 10607 10607
10534 10536 10539 10542 10545 10548 10550 10552 10554 10556 10558 10561 10564 10566 10568 10571 10573 10575 10577 10580 10582 10584 10586 10587 10588 10590 10590 10591 10592 10593 10594 10594 10595 10596 10597 10597 10598 10599 10601 10602 10602 10603
10530 10532 10535 10537 10540 10542 10544 10545 10547 10550 10552 10555 10557 10559 10561 10564 10567 10569 10571 10574 10576 10578 10579 10581 10582 10583 10584 10585 10586 10587 10588 10589 10589 10590 10591 10592 10592 10593 10594 10595 10597 10597
10525 10527 10529 10532 10535 10536 10538 10539 10541 10543 10547 10549 10551 10553 10555 10557 10560 10562 10565 10568 10570 10572 10573 10574 10576 10576 10577 10578 10579 10580 10581 10582 10583 10584 10586 10586 10587 10587 10588 10589 10590 10591
10519 10522 10524 10526 10529 10530 10532 10533 10535 10537 10541 10543 10545 10547 10549 10551 10553 10556 10558 10561 10564 10565 10566 10567 10569 10570 10571 10571 10572 10573 10574 10576 10577 10578 10579 10580 10581 10581 10582 10583 10584 10585
10513 10516 10518 10520 10522 10524 10526 10527 10529 10531 10534 10536 10539 10541 10543 10545 10547 10549 10552 10554 10555 10557 10559 10560 10562 10563 10564 10565 10566 10567 10568 10569 10570 10572 10573 10574 10575 10575 10576 10577 10578 10579
10507 10510 10512 10514 10516 10517 10519 10520 10522 10525 10527 10530 10532 10534 10536 10539 10540 10542 10545 10546 10547 10549 10552 10553 10554 10555 10556 10558 10559 10560 10561 10562 10564 10565 10566 10567 10568 10569 10569 10570 10571 10572
10501 10503 10505 10507 10509 10511 10512 10513 10515 10517 10520 10523 10526 10527 10529 10531 10533 10535 10537 10539 10540 10542 10544 10546 10547 10548 10549 10550 10552 10553 10554 10556 10557 10558 10560 10561 10561 10562 10563 10563 10564 10565
10494 10496 10498 10500 10502 10504 10505 10507 10508 10510 10512 10515 10518 10520 10522 10523 10525 10528 10530 10532 10533 10535 10537 10539 10540 10541 10542 10544 10545 10546 10548 10549 10550 10551 10552 10553 10554 10555 10555 10556 10557 10558
10486 10488 10490 10492 10495 10496 10498 10499 10501 10502 10504 10507 10510 10512 10514 10516 10518 10520 10522 10524 10525 10527 10529 10531 10532 10534 10536 10537 10539 10540 10541 10541 10542 10543 10544 10545 10546 10546 10547 10548 10549 10550